Wetterdaten: Sonntag, 28.03.2010
Datum Zeit Temp. A. Feuchte A. Luftdruck Regen Wind Richtung Richtung Sonnenschein UV Solar Windben
28.03.2010 00:00 8,5 C 81 % 1003,0 hPa 0,0 mm 3,2 km/h (1 Bft) SW 225 0 min 0 UV-I 0 W/m 11,3 km/h (2 Bft)
28.03.2010 00:10 8,5 C 81 % 1003,0 hPa 0,0 mm 3,2 km/h (1 Bft) S-SW 202 0 min 0 UV-I 0 W/m 8,0 km/h (2 Bft)
28.03.2010 00:20 8,4 C 81 % 1003,0 hPa 0,0 mm 3,2 km/h (1 Bft) SW 225 0 min 0 UV-I 0 W/m 8,0 km/h (2 Bft)
28.03.2010 00:30 8,3 C 82 % 1003,1 hPa 0,0 mm 1,6 km/h (1 Bft) SW 225 0 min 0 UV-I 0 W/m 8,0 km/h (2 Bft)
28.03.2010 00:40 8,3 C 82 % 1003,1 hPa 0,0 mm 1,6 km/h (1 Bft) SW 225 0 min 0 UV-I 0 W/m 6,4 km/h (2 Bft)
28.03.2010 00:50 8,2 C 82 % 1003,2 hPa 0,0 mm 1,6 km/h (1 Bft) SW 225 0 min 0 UV-I 0 W/m 6,4 km/h (2 Bft)
28.03.2010 01:00 8,2 C 82 % 1003,1 hPa 0,0 mm 1,6 km/h (1 Bft) SW 225 0 min 0 UV-I 0 W/m 6,4 km/h (2 Bft)
28.03.2010 01:10 8,2 C 82 % 1003,3 hPa 0,0 mm 1,6 km/h (1 Bft) SW 225 0 min 0 UV-I 0 W/m 4,8 km/h (1 Bft)
28.03.2010 01:20 8,2 C 82 % 1003,3 hPa 0,0 mm 1,6 km/h (1 Bft) W-SW 247 0 min 0 UV-I 0 W/m 6,4 km/h (2 Bft)
28.03.2010 01:30 8,3 C 82 % 1003,4 hPa 0,0 mm 1,6 km/h (1 Bft) W-SW 247 0 min 0 UV-I 0 W/m 8,0 km/h (2 Bft)
28.03.2010 01:40 8,3 C 82 % 1003,5 hPa 0,0 mm 1,6 km/h (1 Bft) W 270 0 min 0 UV-I 0 W/m 6,4 km/h (2 Bft)
28.03.2010 01:50 8,3 C 83 % 1003,6 hPa 0,0 mm 1,6 km/h (1 Bft) W-SW 247 0 min 0 UV-I 0 W/m 8,0 km/h (2 Bft)
28.03.2010 03:00 8,3 C 85 % 1003,7 hPa 0,8 mm 3,2 km/h (1 Bft) W-SW 247 0 min 0 UV-I 0 W/m 9,7 km/h (2 Bft)
28.03.2010 03:10 8,1 C 86 % 1003,7 hPa 0,0 mm 1,6 km/h (1 Bft) SW 225 0 min 0 UV-I 0 W/m 6,4 km/h (2 Bft)
28.03.2010 03:20 7,9 C 86 % 1003,6 hPa 0,0 mm 1,6 km/h (1 Bft) SW 225 0 min 0 UV-I 0 W/m 8,0 km/h (2 Bft)
28.03.2010 03:30 7,9 C 86 % 1003,5 hPa 0,0 mm 1,6 km/h (1 Bft) SW 225 0 min 0 UV-I 0 W/m 8,0 km/h (2 Bft)
28.03.2010 03:40 8,0 C 86 % 1003,4 hPa 0,0 mm 3,2 km/h (1 Bft) SW 225 0 min 0 UV-I 0 W/m 14,5 km/h (3 Bft)
28.03.2010 03:50 8,1 C 85 % 1003,4 hPa 0,0 mm 3,2 km/h (1 Bft) S-SW 202 0 min 0 UV-I 0 W/m 9,7 km/h (2 Bft)
28.03.2010 04:00 8,2 C 85 % 1003,3 hPa 0,0 mm 3,2 km/h (1 Bft) SW 225 0 min 0 UV-I 0 W/m 11,3 km/h (2 Bft)
28.03.2010 04:10 8,3 C 85 % 1003,1 hPa 0,0 mm 3,2 km/h (1 Bft) W-SW 247 0 min 0 UV-I 0 W/m 11,3 km/h (2 Bft)
28.03.2010 04:20 8,3 C 84 % 1003,0 hPa 0,3 mm 4,8 km/h (1 Bft) W-SW 247 0 min 0 UV-I 0 W/m 14,5 km/h (3 Bft)
28.03.2010 04:30 8,3 C 85 % 1003,0 hPa 0,5 mm 3,2 km/h (1 Bft) W-SW 247 0 min 0 UV-I 0 W/m 14,5 km/h (3 Bft)
28.03.2010 04:40 8,1 C 86 % 1002,9 hPa 0,0 mm 3,2 km/h (1 Bft) W-SW 247 0 min 0 UV-I 0 W/m 9,7 km/h (2 Bft)
28.03.2010 04:50 8,1 C 87 % 1002,8 hPa 0,0 mm 1,6 km/h (1 Bft) W 270 0 min 0 UV-I 0 W/m 8,0 km/h (2 Bft)
28.03.2010 05:00 7,9 C 88 % 1002,7 hPa 0,0 mm 3,2 km/h (1 Bft) N-NO 22 0 min 0 UV-I 0 W/m 11,3 km/h (2 Bft)
28.03.2010 05:10 7,8 C 89 % 1002,6 hPa 0,0 mm 1,6 km/h (1 Bft) W 270 0 min 0 UV-I 0 W/m 9,7 km/h (2 Bft)
28.03.2010 05:20 7,8 C 89 % 1002,5 hPa 0,3 mm 3,2 km/h (1 Bft) SW 225 0 min 0 UV-I 0 W/m 9,7 km/h (2 Bft)
28.03.2010 05:30 7,9 C 88 % 1002,4 hPa 0,0 mm 1,6 km/h (1 Bft) SW 225 0 min 0 UV-I 0 W/m 8,0 km/h (2 Bft)
28.03.2010 05:40 7,9 C 88 % 1002,3 hPa 0,0 mm 0,0 km/h (0 Bft) W-SW 247 0 min 0 UV-I 0 W/m 4,8 km/h (1 Bft)
28.03.2010 05:50 7,9 C 88 % 1002,3 hPa 0,0 mm 1,6 km/h (1 Bft) W-SW 247 0 min 0 UV-I 0 W/m 4,8 km/h (1 Bft)
28.03.2010 06:00 7,9 C 88 % 1002,2 hPa 0,0 mm 0,0 km/h (0 Bft) W-SW 247 0 min 0 UV-I 0 W/m 3,2 km/h (1 Bft)
28.03.2010 06:10 7,9 C 88 % 1002,1 hPa 0,0 mm 0,0 km/h (0 Bft) W-SW 247 0 min 0 UV-I 0 W/m 3,2 km/h (1 Bft)
28.03.2010 06:20 8,0 C 88 % 1002,1 hPa 0,0 mm 0,0 km/h (0 Bft) W-SW 247 0 min 0 UV-I 0 W/m 4,8 km/h (1 Bft)
28.03.2010 06:30 8,0 C 87 % 1002,0 hPa 0,0 mm 1,6 km/h (1 Bft) W-SW 247 0 min 0 UV-I 0 W/m 6,4 km/h (2 Bft)
28.03.2010 06:40 8,0 C 87 % 1002,1 hPa 0,0 mm 0,0 km/h (0 Bft) W-SW 247 0 min 0 UV-I 0 W/m 6,4 km/h (2 Bft)
28.03.2010 06:50 8,0 C 87 % 1002,0 hPa 0,3 mm 1,6 km/h (1 Bft) SW 225 0 min 0 UV-I 0 W/m 6,4 km/h (2 Bft)
28.03.2010 07:00 8,0 C 87 % 1002,0 hPa 0,3 mm 6,4 km/h (2 Bft) SW 225 0 min 0 UV-I 0 W/m 17,7 km/h (3 Bft)
28.03.2010 07:10 8,0 C 88 % 1002,0 hPa 0,5 mm 4,8 km/h (1 Bft) W-SW 247 0 min 0 UV-I 0 W/m 16,1 km/h (3 Bft)
28.03.2010 07:20 7,8 C 88 % 1001,9 hPa 0,0 mm 4,8 km/h (1 Bft) W-SW 247 0 min 0 UV-I 0 W/m 14,5 km/h (3 Bft)
28.03.2010 07:30 7,7 C 89 % 1001,9 hPa 0,0 mm 4,8 km/h (1 Bft) W-SW 247 0 min 0 UV-I 0 W/m 16,1 km/h (3 Bft)
28.03.2010 07:40 7,6 C 89 % 1001,8 hPa 0,3 mm 3,2 km/h (1 Bft) SW 225 0 min 0 UV-I 0 W/m 11,3 km/h (2 Bft)
28.03.2010 07:50 7,5 C 89 % 1001,7 hPa 0,0 mm 1,6 km/h (1 Bft) W-SW 247 0 min 0 UV-I 0 W/m 9,7 km/h (2 Bft)
28.03.2010 08:00 7,4 C 90 % 1001,7 hPa 0,0 mm 1,6 km/h (1 Bft) SW 225 0 min 0 UV-I 0 W/m 8,0 km/h (2 Bft)
28.03.2010 08:10 7,4 C 90 % 1001,7 hPa 0,5 mm 3,2 km/h (1 Bft) SW 225 0 min 0 UV-I 5 W/m 11,3 km/h (2 Bft)
28.03.2010 08:20 7,4 C 90 % 1001,6 hPa 1,0 mm 4,8 km/h (1 Bft) W 270 0 min 0 UV-I 9 W/m 17,7 km/h (3 Bft)
28.03.2010 08:30 7,4 C 91 % 1001,6 hPa 0,3 mm 4,8 km/h (1 Bft) W 270 0 min 0 UV-I 30 W/m 14,5 km/h (3 Bft)
28.03.2010 08:40 7,3 C 91 % 1001,6 hPa 0,3 mm 6,4 km/h (2 Bft) W 270 0 min 0 UV-I 30 W/m 17,7 km/h (3 Bft)
28.03.2010 08:50 7,3 C 91 % 1001,6 hPa 0,0 mm 4,8 km/h (1 Bft) W-SW 247 0 min 0 UV-I 67 W/m 17,7 km/h (3 Bft)
28.03.2010 09:00 7,5 C 91 % 1001,5 hPa 0,0 mm 4,8 km/h (1 Bft) W 270 0 min 0 UV-I 134 W/m 16,1 km/h (3 Bft)
28.03.2010 09:10 7,8 C 91 % 1001,5 hPa 0,0 mm 4,8 km/h (1 Bft) W 270 10 min 1 UV-I 179 W/m 14,5 km/h (3 Bft)
28.03.2010 09:20 7,8 C 91 % 1001,4 hPa 0,0 mm 6,4 km/h (2 Bft) W-SW 247 0 min 1 UV-I 98 W/m 19,3 km/h (3 Bft)
28.03.2010 09:30 7,9 C 91 % 1001,4 hPa 0,0 mm 8,0 km/h (2 Bft) W-SW 247 0 min 1 UV-I 123 W/m 19,3 km/h (3 Bft)
28.03.2010 09:40 8,0 C 91 % 1001,3 hPa 0,0 mm 8,0 km/h (2 Bft) W 270 0 min 1 UV-I 142 W/m 24,1 km/h (4 Bft)
28.03.2010 09:50 8,1 C 90 % 1001,2 hPa 0,0 mm 8,0 km/h (2 Bft) W-SW 247 0 min 1 UV-I 169 W/m 20,9 km/h (4 Bft)
28.03.2010 10:00 8,2 C 88 % 1001,2 hPa 0,0 mm 9,7 km/h (2 Bft) W-SW 247 0 min 1 UV-I 181 W/m 20,9 km/h (4 Bft)
28.03.2010 10:10 8,4 C 88 % 1001,0 hPa 0,0 mm 8,0 km/h (2 Bft) SW 225 0 min 1 UV-I 199 W/m 19,3 km/h (3 Bft)
28.03.2010 10:20 8,5 C 87 % 1001,0 hPa 0,0 mm 8,0 km/h (2 Bft) W 270 0 min 1 UV-I 134 W/m 19,3 km/h (3 Bft)
28.03.2010 10:30 8,5 C 87 % 1000,9 hPa 0,0 mm 8,0 km/h (2 Bft) W-SW 247 0 min 1 UV-I 134 W/m 19,3 km/h (3 Bft)
28.03.2010 10:40 8,6 C 86 % 1000,8 hPa 0,0 mm 8,0 km/h (2 Bft) W-SW 247 0 min 1 UV-I 134 W/m 19,3 km/h (3 Bft)
28.03.2010 10:50 8,6 C 86 % 1000,8 hPa 0,0 mm 8,0 km/h (2 Bft) W 270 0 min 1 UV-I 134 W/m 20,9 km/h (4 Bft)
28.03.2010 11:00 8,6 C 86 % 1000,7 hPa 0,0 mm 9,7 km/h (2 Bft) W-SW 247 0 min 1 UV-I 162 W/m 22,5 km/h (4 Bft)
28.03.2010 11:10 8,7 C 86 % 1000,6 hPa 0,0 mm 6,4 km/h (2 Bft) W-SW 247 0 min 1 UV-I 149 W/m 16,1 km/h (3 Bft)
28.03.2010 11:20 8,8 C 86 % 1000,5 hPa 0,0 mm 6,4 km/h (2 Bft) W-SW 247 0 min 1 UV-I 139 W/m 17,7 km/h (3 Bft)
28.03.2010 11:30 8,8 C 85 % 1000,3 hPa 0,0 mm 8,0 km/h (2 Bft) SW 225 0 min 1 UV-I 202 W/m 24,1 km/h (4 Bft)
28.03.2010 11:40 9,1 C 84 % 1000,2 hPa 0,0 mm 9,7 km/h (2 Bft) W-SW 247 0 min 2 UV-I 285 W/m 22,5 km/h (4 Bft)
28.03.2010 11:50 9,5 C 79 % 1000,0 hPa 0,0 mm 11,3 km/h (2 Bft) W-SW 247 10 min 2 UV-I 443 W/m 35,4 km/h (5 Bft)
28.03.2010 12:00 9,7 C 77 % 1000,1 hPa 0,0 mm 11,3 km/h (2 Bft) W-SW 247 0 min 2 UV-I 267 W/m 30,6 km/h (5 Bft)
28.03.2010 12:10 9,7 C 73 % 1000,1 hPa 0,0 mm 12,9 km/h (3 Bft) W-SW 247 0 min 2 UV-I 274 W/m 33,8 km/h (5 Bft)
28.03.2010 12:20 9,8 C 72 % 1000,0 hPa 0,0 mm 12,9 km/h (3 Bft) W-SW 247 10 min 2 UV-I 403 W/m 35,4 km/h (5 Bft)
28.03.2010 12:30 10,2 C 68 % 1000,0 hPa 0,0 mm 11,3 km/h (2 Bft) W-SW 247 10 min 3 UV-I 772 W/m 37,0 km/h (5 Bft)
28.03.2010 12:40 10,3 C 65 % 1000,0 hPa 0,0 mm 14,5 km/h (3 Bft) W-SW 247 10 min 3 UV-I 656 W/m 29,0 km/h (5 Bft)
28.03.2010 12:50 10,6 C 61 % 999,9 hPa 0,0 mm 11,3 km/h (2 Bft) W-SW 247 10 min 3 UV-I 728 W/m 32,2 km/h (5 Bft)
28.03.2010 13:00 10,4 C 60 % 999,8 hPa 0,0 mm 14,5 km/h (3 Bft) W-SW 247 0 min 2 UV-I 329 W/m 35,4 km/h (5 Bft)
28.03.2010 13:10 10,4 C 61 % 999,7 hPa 0,0 mm 9,7 km/h (2 Bft) SW 225 10 min 4 UV-I 886 W/m 24,1 km/h (4 Bft)
28.03.2010 13:20 11,0 C 60 % 999,8 hPa 0,0 mm 11,3 km/h (2 Bft) W-SW 247 10 min 4 UV-I 874 W/m 32,2 km/h (5 Bft)
28.03.2010 13:30 10,5 C 61 % 999,6 hPa 0,0 mm 14,5 km/h (3 Bft) W-SW 247 10 min 3 UV-I 598 W/m 32,2 km/h (5 Bft)
28.03.2010 13:40 10,3 C 60 % 999,6 hPa 0,0 mm 14,5 km/h (3 Bft) W-SW 247 0 min 2 UV-I 332 W/m 32,2 km/h (5 Bft)
28.03.2010 13:50 10,4 C 59 % 999,5 hPa 0,0 mm 14,5 km/h (3 Bft) W-SW 247 10 min 4 UV-I 802 W/m 32,2 km/h (5 Bft)
28.03.2010 14:00 11,2 C 55 % 999,4 hPa 0,0 mm 14,5 km/h (3 Bft) W 270 10 min 3 UV-I 747 W/m 30,6 km/h (5 Bft)
28.03.2010 14:10 11,4 C 56 % 999,3 hPa 0,0 mm 11,3 km/h (2 Bft) W-SW 247 10 min 3 UV-I 856 W/m 27,4 km/h (4 Bft)
28.03.2010 14:20 11,5 C 56 % 999,2 hPa 0,0 mm 12,9 km/h (3 Bft) W-SW 247 10 min 4 UV-I 877 W/m 27,4 km/h (4 Bft)
28.03.2010 14:30 11,3 C 56 % 999,0 hPa 0,0 mm 12,9 km/h (3 Bft) W-SW 247 10 min 3 UV-I 376 W/m 30,6 km/h (5 Bft)
28.03.2010 14:40 11,2 C 57 % 998,9 hPa 0,0 mm 9,7 km/h (2 Bft) W 270 0 min 3 UV-I 279 W/m 22,5 km/h (4 Bft)
28.03.2010 14:50 11,2 C 58 % 998,8 hPa 0,0 mm 8,0 km/h (2 Bft) W-SW 247 0 min 1 UV-I 169 W/m 22,5 km/h (4 Bft)
28.03.2010 15:00 11,0 C 57 % 998,5 hPa 0,0 mm 11,3 km/h (2 Bft) W-SW 247 0 min 2 UV-I 234 W/m 25,7 km/h (4 Bft)
28.03.2010 15:10 11,2 C 58 % 998,4 hPa 0,0 mm 8,0 km/h (2 Bft) W-SW 247 10 min 2 UV-I 401 W/m 19,3 km/h (3 Bft)
28.03.2010 15:20 11,3 C 54 % 998,2 hPa 0,0 mm 11,3 km/h (2 Bft) W-SW 247 10 min 2 UV-I 352 W/m 25,7 km/h (4 Bft)
28.03.2010 15:30 11,4 C 55 % 998,1 hPa 0,0 mm 9,7 km/h (2 Bft) W-SW 247 0 min 2 UV-I 271 W/m 24,1 km/h (4 Bft)
28.03.2010 15:40 11,6 C 55 % 998,0 hPa 0,0 mm 11,3 km/h (2 Bft) W 270 0 min 2 UV-I 295 W/m 22,5 km/h (4 Bft)
28.03.2010 15:50 11,7 C 52 % 997,8 hPa 0,0 mm 9,7 km/h (2 Bft) W 270 0 min 1 UV-I 236 W/m 30,6 km/h (5 Bft)
28.03.2010 16:00 11,5 C 52 % 997,7 hPa 0,0 mm 5,7 km/h (1 Bft) W-SW 254 0 min 1 UV-I 161 W/m 16,1 km/h (3 Bft)
28.03.2010 16:10 11,6 C 53 % 997,5 hPa 0,0 mm 8,0 km/h (2 Bft) W 270 0 min 2 UV-I 236 W/m 22,5 km/h (4 Bft)
28.03.2010 16:20 11,7 C 51 % 997,3 hPa 0,0 mm 6,4 km/h (2 Bft) W 270 10 min 1 UV-I 285 W/m 19,3 km/h (3 Bft)
28.03.2010 16:30 11,9 C 50 % 997,2 hPa 0,0 mm 11,3 km/h (2 Bft) W-SW 247 0 min 1 UV-I 229 W/m 33,8 km/h (5 Bft)
28.03.2010 16:40 11,6 C 52 % 997,0 hPa 0,0 mm 11,3 km/h (2 Bft) W-SW 247 0 min 1 UV-I 207 W/m 25,7 km/h (4 Bft)
28.03.2010 16:50 11,8 C 53 % 996,9 hPa 0,0 mm 8,0 km/h (2 Bft) W-SW 247 10 min 1 UV-I 403 W/m 24,1 km/h (4 Bft)
28.03.2010 17:00 12,0 C 53 % 996,8 hPa 0,0 mm 9,7 km/h (2 Bft) W-SW 247 10 min 1 UV-I 339 W/m 25,7 km/h (4 Bft)
28.03.2010 17:10 11,8 C 55 % 996,7 hPa 0,0 mm 8,0 km/h (2 Bft) W-SW 247 10 min 1 UV-I 248 W/m 19,3 km/h (3 Bft)
28.03.2010 17:20 11,7 C 55 % 996,4 hPa 0,0 mm 8,0 km/h (2 Bft) W-SW 247 0 min 1 UV-I 158 W/m 20,9 km/h (4 Bft)
28.03.2010 17:30 11,5 C 56 % 996,3 hPa 0,0 mm 11,3 km/h (2 Bft) W-SW 247 0 min 1 UV-I 69 W/m 22,5 km/h (4 Bft)
28.03.2010 17:40 11,3 C 58 % 996,2 hPa 0,0 mm 4,8 km/h (1 Bft) SW 225 0 min 1 UV-I 102 W/m 11,3 km/h (2 Bft)
28.03.2010 17:50 11,2 C 59 % 996,0 hPa 0,0 mm 6,4 km/h (2 Bft) SW 225 0 min 1 UV-I 86 W/m 17,7 km/h (3 Bft)
28.03.2010 18:00 11,2 C 58 % 995,9 hPa 0,0 mm 9,7 km/h (2 Bft) W-SW 247 0 min 0 UV-I 111 W/m 20,9 km/h (4 Bft)
28.03.2010 18:10 11,2 C 59 % 995,7 hPa 0,0 mm 9,7 km/h (2 Bft) W-SW 247 0 min 0 UV-I 91 W/m 25,7 km/h (4 Bft)
28.03.2010 18:20 11,0 C 60 % 995,5 hPa 0,0 mm 8,0 km/h (2 Bft) W-SW 247 0 min 0 UV-I 32 W/m 29,0 km/h (5 Bft)
28.03.2010 18:30 10,8 C 60 % 995,3 hPa 0,0 mm 9,7 km/h (2 Bft) W 270 0 min 0 UV-I 76 W/m 22,5 km/h (4 Bft)
28.03.2010 18:40 10,7 C 62 % 995,2 hPa 0,0 mm 6,4 km/h (2 Bft) W-SW 247 0 min 0 UV-I 28 W/m 19,3 km/h (3 Bft)
28.03.2010 18:50 10,6 C 64 % 995,0 hPa 0,0 mm 6,4 km/h (2 Bft) W 270 0 min 0 UV-I 19 W/m 16,1 km/h (3 Bft)
28.03.2010 19:00 10,3 C 66 % 994,9 hPa 0,0 mm 4,8 km/h (1 Bft) W-SW 247 0 min 0 UV-I 7 W/m 16,1 km/h (3 Bft)
28.03.2010 19:10 10,1 C 68 % 994,8 hPa 0,0 mm 4,8 km/h (1 Bft) W-SW 247 0 min 0 UV-I 5 W/m 17,7 km/h (3 Bft)
28.03.2010 19:20 9,7 C 72 % 994,8 hPa 0,0 mm 3,2 km/h (1 Bft) W-SW 247 0 min 0 UV-I 7 W/m 11,3 km/h (2 Bft)
28.03.2010 19:30 9,4 C 73 % 994,7 hPa 0,0 mm 4,8 km/h (1 Bft) W-SW 247 0 min 0 UV-I 9 W/m 17,7 km/h (3 Bft)
28.03.2010 19:40 9,3 C 74 % 994,5 hPa 0,0 mm 1,6 km/h (1 Bft) W-SW 247 0 min 0 UV-I 0 W/m 6,4 km/h (2 Bft)
28.03.2010 19:50 9,2 C 76 % 994,3 hPa 0,3 mm 0,0 km/h (0 Bft) W-SW 247 0 min 0 UV-I 0 W/m 4,8 km/h (1 Bft)
28.03.2010 20:00 8,9 C 79 % 994,2 hPa 0,0 mm 0,0 km/h (0 Bft) W-SW 247 0 min 0 UV-I 0 W/m 3,2 km/h (1 Bft)
28.03.2010 20:10 8,7 C 81 % 994,0 hPa 0,3 mm 0,0 km/h (0 Bft) W 270 0 min 0 UV-I 0 W/m 6,4 km/h (2 Bft)
28.03.2010 20:20 8,4 C 83 % 994,0 hPa 0,3 mm 1,6 km/h (1 Bft) W-SW 247 0 min 0 UV-I 0 W/m 6,4 km/h (2 Bft)
28.03.2010 20:30 8,2 C 85 % 993,9 hPa 0,0 mm 1,6 km/h (1 Bft) SW 225 0 min 0 UV-I 0 W/m 6,4 km/h (2 Bft)
28.03.2010 20:40 8,1 C 85 % 993,8 hPa 0,0 mm 1,6 km/h (1 Bft) SW 225 0 min 0 UV-I 0 W/m 8,0 km/h (2 Bft)
28.03.2010 20:50 8,1 C 85 % 993,8 hPa 0,0 mm 1,6 km/h (1 Bft) SW 225 0 min 0 UV-I 0 W/m 11,3 km/h (2 Bft)
28.03.2010 21:00 7,9 C 85 % 993,7 hPa 0,0 mm 1,6 km/h (1 Bft) SW 225 0 min 0 UV-I 0 W/m 9,7 km/h (2 Bft)
28.03.2010 21:10 7,8 C 86 % 993,6 hPa 0,0 mm 1,6 km/h (1 Bft) SW 225 0 min 0 UV-I 0 W/m 9,7 km/h (2 Bft)
28.03.2010 21:20 7,8 C 86 % 993,5 hPa 0,0 mm 1,6 km/h (1 Bft) SW 225 0 min 0 UV-I 0 W/m 9,7 km/h (2 Bft)
28.03.2010 21:30 7,8 C 87 % 993,4 hPa 0,0 mm 1,6 km/h (1 Bft) SW 225 0 min 0 UV-I 0 W/m 6,4 km/h (2 Bft)
28.03.2010 21:40 7,7 C 87 % 993,3 hPa 0,0 mm 0,0 km/h (0 Bft) SW 225 0 min 0 UV-I 0 W/m 3,2 km/h (1 Bft)
28.03.2010 21:50 7,7 C 88 % 993,3 hPa 0,0 mm 0,0 km/h (0 Bft) SW 225 0 min 0 UV-I 0 W/m 1,6 km/h (1 Bft)
28.03.2010 22:00 7,7 C 88 % 993,2 hPa 0,0 mm 0,0 km/h (0 Bft) SW 225 0 min 0 UV-I 0 W/m 3,2 km/h (1 Bft)
28.03.2010 22:10 7,7 C 88 % 993,0 hPa 0,0 mm 1,6 km/h (1 Bft) SW 225 0 min 0 UV-I 0 W/m 4,8 km/h (1 Bft)
28.03.2010 22:20 7,7 C 88 % 992,9 hPa 0,0 mm 1,6 km/h (1 Bft) S-SW 202 0 min 0 UV-I 0 W/m 8,0 km/h (2 Bft)
28.03.2010 22:30 7,7 C 88 % 992,9 hPa 0,0 mm 1,6 km/h (1 Bft) S-SW 202 0 min 0 UV-I 0 W/m 6,4 km/h (2 Bft)
28.03.2010 22:40 7,7 C 88 % 992,9 hPa 0,0 mm 1,6 km/h (1 Bft) SW 225 0 min 0 UV-I 0 W/m 4,8 km/h (1 Bft)
28.03.2010 22:50 7,7 C 87 % 992,9 hPa 0,0 mm 1,6 km/h (1 Bft) SW 225 0 min 0 UV-I 0 W/m 6,4 km/h (2 Bft)
28.03.2010 23:00 7,7 C 87 % 991,0 hPa 0,0 mm 3,2 km/h (1 Bft) W-SW 247 0 min 0 UV-I 0 W/m 8,0 km/h (2 Bft)
28.03.2010 23:10 7,6 C 86 % 991,2 hPa 1,0 mm 4,8 km/h (1 Bft) W-NW 292 0 min 0 UV-I 0 W/m 16,1 km/h (3 Bft)
28.03.2010 23:20 7,3 C 87 % 991,2 hPa 0,8 mm 6,4 km/h (2 Bft) W-SW 247 0 min 0 UV-I 0 W/m 19,3 km/h (3 Bft)
28.03.2010 23:30 7,2 C 88 % 991,3 hPa 0,8 mm 4,8 km/h (1 Bft) W-SW 247 0 min 0 UV-I 0 W/m 17,7 km/h (3 Bft)
28.03.2010 23:40 7,1 C 89 % 991,3 hPa 0,0 mm 4,8 km/h (1 Bft) SW 225 0 min 0 UV-I 0 W/m 11,3 km/h (2 Bft)
28.03.2010 23:50 7,1 C 89 % 991,4 hPa 0,0 mm 3,2 km/h (1 Bft) S-SW 202 0 min 0 UV-I 0 W/m 9,7 km/h (2 Bft)
_ Min-Zeit 23:50 16:30 23:00 - 05:40 - - - - - 21:50
Minimum _ 7,0 C 50 % 991,0 hPa - 0,0 km/h (0 Bft) - - - - - 1,6 km/h (1 Bft)
_ Max-Zeit 16:50 08:30 03:00 08:20 12:40 - - 09:10 13:10 13:10 12:30
Maximum _ 12,1 C 91 % 1003,7 hPa 1,0 mm 14,5 km/h
W-SW (3 Bft)
- - 10 min 4 UV-I 886 W/m 37,0 km/h
W-SW (5 Bft)
Durchschnitt _ 9,0 C 77 % 999,0 hPa #8,4 mm 5,5 km/h (1 Bft) W-SW - #3:20 h 2 UV-I 264 W/m 15,9 km/h (3 Bft)